Regional Weather Roundup
Issued by NWS

Home | Current Version | Previous Version | Text Only | Print | Product List | Glossary Off
Versions: 1 2 3 4 5 6 7 8 9 10 11 12 13 14 15 16 17 18 19 20 21 22 23 24 25 26 27 28 29 30 31 32 33 34 35 36 37 38 39 40 41 42 43 44 45 46 47 48 49 50

000
ASUS43 KBIS 271902
RWRND

NORTH DAKOTA REGIONAL WEATHER ROUNDUP
NATIONAL WEATHER SERVICE BISMARCK ND
200 PM CDT SAT AUG 27 2016

NOTE: "FAIR" INDICATES FEW OR NO CLOUDS BELOW 12,000 FEET WITH NO
SIGNIFICANT WEATHER AND/OR OBSTRUCTIONS TO VISIBILITY.


NDZ001>003-009>011-017-272000-
NORTHWEST NORTH DAKOTA

CITY           SKY/WX    TMP DP  RH WIND       PRES   REMARKS
WILLISTON      SUNNY     77  43  29 SE8       29.86F
MINOT          MOSUNNY   75  48  38 N6        29.88F
MINOT AFB      SUNNY     74  45  36 VRB2      29.87F
$$

NDZ018>021-031>035-040>046-272000-
SOUTHWEST NORTH DAKOTA

CITY           SKY/WX    TMP DP  RH WIND       PRES   REMARKS
BISMARCK       SUNNY     76  51  41 SW7       29.92S
DICKINSON      SUNNY     73  40  30 W5        29.89F
GARRISON         N/A     74  47  38 SW8       29.90F
HETTINGER ARPT SUNNY     76  50  40 S6        29.93F
$$

NDZ004>008-012>016-024-026-027-054-272000-
NORTHEAST NORTH DAKOTA

CITY           SKY/WX    TMP DP  RH WIND       PRES   REMARKS
GRAND FORKS    CLOUDY    66  60  81 SE17      29.92S
GRND FRKS AFB  PTSUNNY   69  60  75 SE12      29.91S
DEVILS LAKE    SUNNY     71  52  50 SW5       29.91
$$

NDZ022-023-025-028>030-036>039-047>053-272000-
SOUTHEAST NORTH DAKOTA

CITY           SKY/WX    TMP DP  RH WIND       PRES   REMARKS
FARGO          CLOUDY    63  59  87 S8        29.93R
JAMESTOWN      MOSUNNY   75  60  59 S13       29.90F
$$




USA.gov is the U.S. government's official web portal to all federal, state and local government web resources and services.